Weather History for West Palm Beach, FL

Change the Weather History Date:

Wednesday, April 9, 2014

  Actual Average Record
Temperature  
Mean Temperature 70 °F 73 °F  
Max Temperature 78 °F 81 °F 92 °F (1965)
Min Temperature 61 °F 65 °F 46 °F (1939)
Degree Days  
Heating Degree Days 0 0  
Month to date heating degree days 0 0  
Since 1 July heating degree days 122 229  
Cooling Degree Days 5 8  
Month to date cooling degree days 87 69  
Year to date cooling degree days 635 497  
Growing Degree Days 20 (Base 50)    
Moisture  
Dew Point 53 °F    
Average Humidity 60    
Maximum Humidity 87    
Minimum Humidity 33    
Precipitation  
Precipitation 0.00 in 0.13 in 3.44 in (1984)
Month to date precipitation 0.06 1.22  
Year to date precipitation 13.94 11.76  
Snow  
Snow 0.00 in - - ()
Month to date snowfall 0.0  
Since 1 July snowfall 0.0  
Snow Depth 0.00 in    
Sea Level Pressure  
Sea Level Pressure 30.00 in    
Wind  
Wind Speed 11 mph (NW)    
Max Wind Speed 25 mph    
Max Gust Speed 31 mph    
Visibility 10 miles    
Events      
T = Trace of Precipitation, MM = Missing Value Source: NWS Daily Summary

Daily Weather History Graph

Daily Weather History Graph

Search for Another Location

Airport:

Trip Planner

Search our weather history database for the weather conditions in past years. The results will help you decide how hot, cold, wet, or windy it might be!

Date:

Astronomy

Apr. 09, 2014 Rise Set
Actual Time 7:02 AM EDT 7:41 PM EDT
Civil Twilight 6:39 AM EDT 8:05 PM EDT
Nautical Twilight 6:11 AM EDT 8:32 PM EDT
Astronomical Twilight 5:43 AM EDT 9:00 PM EDT
Moon 2:55 PM EDT (4/9) 3:22 AM EDT (4/9)
Length of Visible Light 13h 25m
Length of Day
12h 38m
Waxing Gibbous, 71% of the Moon is Illuminated
Apr 9
Waxing Gibbous
Apr 15
Full
Apr 22
Last Quarter
Apr 29
New
May 6
First Quarter

Hourly Weather History & Observations

Time (EDT) Temp. Dew Point Humidity Pressure Visibility Wind Dir Wind Speed Gust Speed Precip Events Conditions
12:53 AM 68.0 °F 64.0 °F 87% 29.89 in 10.0 mi West 10.4 mph - N/A   Overcast
1:53 AM 68.0 °F 62.1 °F 81% 29.88 in 10.0 mi West 16.1 mph 24.2 mph N/A   Overcast
2:53 AM 68.0 °F 60.1 °F 76% 29.89 in 10.0 mi West 13.8 mph - N/A   Overcast
3:53 AM 66.9 °F 59.0 °F 76% 29.89 in 10.0 mi West 13.8 mph - N/A   Overcast
4:53 AM 66.0 °F 57.0 °F 73% 29.89 in 10.0 mi WNW 15.0 mph - N/A   Mostly Cloudy
5:53 AM 64.9 °F 54.0 °F 68% 29.91 in 10.0 mi WNW 10.4 mph - N/A   Scattered Clouds
6:53 AM 63.0 °F 54.0 °F 72% 29.94 in 10.0 mi West 8.1 mph - N/A   Scattered Clouds
7:53 AM 64.0 °F 55.0 °F 73% 29.98 in 10.0 mi West 5.8 mph - N/A   Scattered Clouds
8:53 AM 68.0 °F 55.0 °F 63% 30.00 in 10.0 mi West 11.5 mph - N/A   Scattered Clouds
9:53 AM 71.1 °F 54.0 °F 55% 30.01 in 10.0 mi West 13.8 mph - N/A   Mostly Cloudy
10:53 AM 73.0 °F 51.1 °F 46% 30.04 in 10.0 mi West 20.7 mph 28.8 mph N/A   Mostly Cloudy
11:53 AM 73.9 °F 48.9 °F 41% 30.05 in 10.0 mi WNW 17.3 mph 26.5 mph N/A   Mostly Cloudy
12:53 PM 75.0 °F 50.0 °F 41% 30.04 in 10.0 mi NW 17.3 mph 23.0 mph N/A   Mostly Cloudy
1:53 PM 77.0 °F 48.0 °F 36% 30.03 in 10.0 mi WNW 16.1 mph 26.5 mph N/A   Mostly Cloudy
2:53 PM 75.9 °F 48.0 °F 37% 30.02 in 10.0 mi WNW 17.3 mph 29.9 mph N/A   Mostly Cloudy
3:53 PM 77.0 °F 46.9 °F 34% 30.01 in 10.0 mi WNW 16.1 mph 26.5 mph N/A   Scattered Clouds
4:53 PM 77.0 °F 46.0 °F 33% 30.01 in 10.0 mi WNW 12.7 mph - N/A   Scattered Clouds
5:53 PM 75.0 °F 53.1 °F 46% 30.03 in 10.0 mi NNE 6.9 mph - N/A   Scattered Clouds
6:53 PM 73.9 °F 51.1 °F 45% 30.04 in 10.0 mi NNE 9.2 mph - N/A   Scattered Clouds
7:53 PM 71.1 °F 52.0 °F 51% 30.06 in 10.0 mi NNE 9.2 mph - N/A   Scattered Clouds
8:53 PM 71.1 °F 53.1 °F 53% 30.09 in 10.0 mi NNE 5.8 mph - N/A   Partly Cloudy
9:53 PM 71.1 °F 52.0 °F 51% 30.12 in 10.0 mi NNE 5.8 mph - N/A   Partly Cloudy
10:53 PM 70.0 °F 51.1 °F 51% 30.14 in 10.0 mi North 3.5 mph - N/A   Partly Cloudy
11:53 PM 69.1 °F 52.0 °F 54% 30.16 in 10.0 mi North 3.5 mph - N/A   Scattered Clouds